[[{"header":{"parameterUnit":"m.s-1","parameterCategory":1,"la1":30.2991,"la2":30.254,"lo1":-89.0895,"lo2":-89.0444,"dy":0.0017,"dx":0.0017,"nx":28,"ny":28,"refTime":"2025-09-07T03:00:00:Z","depth":0,"parameterNumber":2,"parameterNumberName":"U-component_of_WINDS"},"data":[0,0,0,0,0,0,0,0,0,0,0,0,0,0,0,0,0,0,0,0,0,0,0,0,0,0,0,0,0,0,0,0,0,0,0,0,0,0,0,0,0,0,0,0,0,0,0,0,0,0,0,0,0,0,0,0,0,0,-1.3734,-1.3734,0,-1.3748,-1.3748,-1.3748,-1.3681,-1.3679,-1.3677,-1.3675,-1.3692,-1.3694,-1.3696,0,0,0,0,0,0,0,0,0,0,0,0,0,-1.3649,-1.3651,-1.3734,-1.3734,-1.3734,-1.3748,-1.3748,-1.3748,-1.3681,-1.3679,-1.3676,-1.3674,-1.3691,-1.3694,-1.3697,0,0,0,0,0,0,0,0,0,0,0,0,0,-1.3677,-1.3652,-1.3734,-1.3702,-1.37,-1.3748,-1.3748,-1.3748,-1.3682,-1.3679,-1.3676,-1.3673,-1.369,-1.3694,-1.3697,-1.3777,0,0,-1.3707,-1.3709,0,0,0,0,0,0,0,0,-1.3676,-1.368,-1.3707,-1.3704,-1.3702,-1.3709,-1.3724,-1.3758,-1.3682,-1.3689,-1.3675,-1.3672,-1.37,-1.3703,-1.3712,-1.3778,-1.3779,-1.3708,-1.371,-1.3711,-1.3712,0,0,0,0,0,0,0,-1.3674,-1.3679,-1.3739,-1.3707,-1.3704,-1.3688,-1.3688,-1.3731,-1.3711,-1.3688,-1.3683,-1.3685,-1.3698,-1.3709,-1.3712,-1.3779,-1.3708,-1.3711,-1.3713,-1.3714,-1.391,-1.3913,0,0,0,0,0,0,-1.3676,-1.3678,-1.3739,-1.374,-1.3681,-1.3692,-1.3692,-1.371,-1.371,-1.3707,-1.3688,-1.3682,-1.3704,-1.3708,-1.3712,-1.3806,-1.3711,-1.3714,-1.3716,-1.3907,-1.3911,-1.3914,0,0,0,0,0,0,-1.3674,-1.3682,-1.3738,-1.3708,-1.3714,-1.3696,-1.3717,-1.3712,-1.3722,-1.371,-1.3707,-1.3702,-1.3702,-1.3707,-1.3761,-1.3805,-1.3716,-1.3719,-1.3903,-1.3908,-1.3913,-1.3994,0,0,0,0,0,0,-1.3672,-1.3682,-1.3712,-1.3709,-1.3715,-1.3787,-1.3719,-1.3714,-1.3728,-1.3721,-1.3723,-1.372,-1.37,-1.3756,-1.3764,-1.3809,-1.3722,-1.3899,-1.3905,-1.3911,-1.3988,-1.4001,-1.4013,0,0,0,0,0,-1.3669,-1.3735,-1.3714,-1.3722,-1.3753,-1.379,-1.3794,-1.3769,-1.3732,-1.3762,-1.3754,-1.372,-1.3799,-1.3762,-1.3771,-1.3817,-1.3896,-1.3904,-1.3911,-1.3982,-1.3998,-1.4013,0,0,0,0,0,0,-1.3746,-1.3734,-1.3711,-1.3777,-1.3785,-1.3779,-1.3816,-1.3787,-1.3807,-1.3799,-1.3768,-1.3769,-1.3828,-1.3827,-1.3787,-1.3894,-1.3841,-1.385,-1.3892,-1.3908,-1.3921,-1.392,-1.3725,0,0,0,0,0,-1.377,-1.3801,-1.3789,-1.3849,-1.3854,-1.3835,-1.385,-1.383,-1.3837,-1.384,-1.3836,-1.3844,-1.3871,-1.3889,-1.3913,-1.3986,-1.3986,-1.4022,-1.4034,-1.4045,-1.4054,-1.4092,-1.4108,-1.3938,-1.3937,-1.3937,0,0,-1.3822,-1.3819,-1.384,-1.3864,-1.3868,-1.39,-1.3838,-1.3875,-1.3899,-1.3846,-1.3896,-1.3893,-1.39,-1.3964,-1.3992,-1.3966,-1.41,-1.4054,-1.4062,-1.4066,-1.4101,-1.4117,-1.4132,-1.3942,-1.3941,-1.3941,0,0,-1.3932,-1.3933,-1.3982,-1.3987,-1.3992,-1.3978,-1.399,-1.3987,-1.3983,-1.4033,-1.3993,-1.4021,-1.4067,-1.4074,-1.4084,-1.4194,-1.4163,-1.4202,-1.4269,-1.4307,-1.432,-1.4332,-1.4372,-1.4386,-1.4211,-1.4211,-1.4211,0,-1.3995,-1.4042,-1.4012,-1.4052,-1.4063,-1.4014,-1.4065,-1.407,-1.4084,-1.4093,-1.4063,-1.4119,-1.412,-1.4185,-1.4212,-1.4221,-1.4233,-1.4203,-1.4321,-1.4332,-1.4343,-1.438,-1.4395,-1.4216,-1.4215,-1.4214,-1.4214,0,-1.412,-1.4153,-1.4193,-1.4205,-1.4221,-1.4266,-1.4243,-1.4262,-1.424,-1.423,-1.428,-1.428,-1.4302,-1.4316,-1.4295,-1.4377,-1.436,-1.4326,-1.4273,-1.4364,-1.4399,-1.4413,-1.4222,-1.4221,-1.4219,-1.4218,0,0,-1.4282,-1.4275,-1.429,-1.4295,-1.4296,-1.4322,-1.4363,-1.4384,-1.4402,-1.4412,-1.4447,-1.4486,-1.4453,-1.4464,-1.4443,-1.4476,-1.4564,-1.4437,-1.4437,-1.4462,-1.4654,-1.4681,-1.4699,-1.4542,-1.4545,-1.4547,-1.4654,0,-1.439,-1.4461,-1.4434,-1.4508,-1.4538,-1.449,-1.4527,-1.4532,-1.4522,-1.4547,-1.4536,-1.4565,-1.4519,-1.4525,-1.4556,-1.4547,-1.4602,-1.4538,-1.4575,-1.4577,-1.4577,-1.4717,-1.4746,-1.4847,-1.4667,-1.467,-1.4671,0,-1.4527,-1.4541,-1.4618,-1.4612,-1.4624,-1.4657,-1.4673,-1.4697,-1.4701,-1.4691,-1.4703,-1.4674,-1.4715,-1.466,-1.4716,-1.4673,-1.4686,-1.4684,-1.4687,-1.4691,-1.4631,-1.4726,-1.4879,-1.4894,-1.4692,-1.4691,-1.4689,0,-1.4638,-1.4676,-1.4727,-1.4732,-1.4727,-1.4751,-1.475,-1.4751,-1.4765,-1.4779,-1.4788,-1.4807,-1.4818,-1.4833,-1.481,-1.4772,-1.4869,-1.4813,-1.4864,-1.4864,-1.4888,-1.4887,-1.5047,-1.4894,-1.4894,-1.4894,-1.4893,0,-1.4763,-1.4812,-1.4776,-1.4808,-1.486,-1.4828,-1.4882,-1.4875,-1.4876,-1.4905,-1.4865,-1.4894,-1.4861,-1.4886,-1.4868,-1.4918,-1.4923,-1.4917,-1.4912,-1.4921,-1.4922,-1.4931,-1.4924,-1.4898,-1.4897,-1.4896,-1.4895,0,-1.4898,-1.4875,-1.4927,-1.4917,-1.4915,-1.4955,-1.4947,-1.4975,-1.4961,-1.4999,-1.5006,-1.4985,-1.5013,-1.4991,-1.5018,-1.5006,-1.5071,-1.5056,-1.507,-1.5066,-1.5118,-1.5114,-1.529,-1.5312,-1.5145,-1.5146,-1.5148,0,-1.498,-1.5016,-1.5009,-1.5025,-1.5026,-1.5053,-1.5066,-1.5035,-1.505,-1.5056,-1.5084,-1.5108,-1.5125,-1.5171,-1.5159,-1.518,-1.5165,-1.5225,-1.5168,-1.5176,-1.5167,-1.5166,-1.5169,-1.5237,-1.5239,-1.5241,-1.5242,0,-1.5128,-1.5114,-1.5135,-1.5151,-1.5167,-1.5179,-1.5187,-1.5203,-1.5171,-1.519,-1.5217,-1.5231,-1.5257,-1.5281,-1.5297,-1.5296,-1.5265,-1.526,-1.5273,-1.5284,-1.5291,-1.5289,-1.5103,-1.5257,-1.5255,-1.5254,-1.5253,-1.5253,-1.5239,-1.5269,-1.5268,-1.5291,-1.5294,-1.5302,-1.5328,-1.5317,-1.5338,-1.5357,-1.5337,-1.537,-1.5371,-1.5389,-1.5392,-1.5417,-1.5392,-1.5411,-1.5416,-1.5422,-1.5429,-1.5285,-1.542,-1.5419,-1.5419,-1.5419,-1.5418,0,-1.5386,-1.5382,-1.5404,-1.5416,-1.5435,-1.5401,-1.5408,-1.5426,-1.5455,-1.5458,-1.5475,-1.5506,-1.5529,-1.5517,-1.5537,-1.5559,-1.5545,-1.5566,-1.5565,-1.5565,-1.545,-1.5437,-1.5577,-1.5577,-1.5577,-1.5577,-1.5577,-1.5577,-1.5465,-1.5513,-1.5499,-1.5548,-1.5544,-1.5575,-1.5581,-1.5589,-1.5591,-1.5627,-1.5645,-1.5637,-1.5634,-1.5653,-1.5672,-1.5668,-1.5678,-1.5704,-1.5695,-1.5589,-1.5573,-1.5558,-1.5546,-1.5706,-1.5706,-1.5808,-1.5809,-1.5809]},{"header":{"parameterUnit":"m.s-1","parameterCategory":1,"la1":30.2991,"la2":30.254,"lo1":-89.0895,"lo2":-89.0444,"dy":0.0017,"dx":0.0017,"nx":28,"ny":28,"refTime":"2025-09-07T03:00:00:Z","depth":0,"parameterNumber":3,"parameterNumberName":"V-component_of_WINDS"},"data":[0,0,0,0,0,0,0,0,0,0,0,0,0,0,0,0,0,0,0,0,0,0,0,0,0,0,0,0,0,0,0,0,0,0,0,0,0,0,0,0,0,0,0,0,0,0,0,0,0,0,0,0,0,0,0,0,0,0,-6.0283,-6.0284,0,-6.0347,-6.0348,-6.0349,-6.0265,-6.0262,-6.0259,-6.0256,-6.0316,-6.032,-6.0325,0,0,0,0,0,0,0,0,0,0,0,0,0,-6.0082,-6.0086,-6.0283,-6.0284,-6.0285,-6.0347,-6.0348,-6.0349,-6.0265,-6.0261,-6.0258,-6.0254,-6.0315,-6.032,-6.0325,0,0,0,0,0,0,0,0,0,0,0,0,0,-6.016,-6.0088,-6.0283,-6.0251,-6.0248,-6.0347,-6.0348,-6.0349,-6.0266,-6.0261,-6.0257,-6.0253,-6.0313,-6.0319,-6.0326,-6.0458,0,0,-6.0346,-6.0349,0,0,0,0,0,0,0,0,-6.0156,-6.0168,-6.0255,-6.0253,-6.0251,-6.0294,-6.0299,-6.0385,-6.0267,-6.0259,-6.0256,-6.025,-6.0312,-6.0318,-6.034,-6.0461,-6.0463,-6.0347,-6.0351,-6.0354,-6.0355,0,0,0,0,0,0,0,-6.0151,-6.0164,-6.0308,-6.0256,-6.0254,-6.0231,-6.0237,-6.0315,-6.031,-6.0259,-6.0254,-6.0263,-6.031,-6.0334,-6.0341,-6.0464,-6.0346,-6.0352,-6.0356,-6.0359,-6.0694,-6.0699,0,0,0,0,0,0,-6.015,-6.016,-6.0306,-6.031,-6.0191,-6.0238,-6.0245,-6.0284,-6.0309,-6.0308,-6.0266,-6.0258,-6.0325,-6.0333,-6.0343,-6.0498,-6.0353,-6.036,-6.0364,-6.0689,-6.0695,-6.07,0,0,0,0,0,0,-6.0146,-6.0164,-6.0304,-6.0234,-6.025,-6.0247,-6.0291,-6.0288,-6.0312,-6.0314,-6.0312,-6.0292,-6.0322,-6.0333,-6.043,-6.0498,-6.0363,-6.0369,-6.0683,-6.0691,-6.0698,-6.0809,0,0,0,0,0,0,-6.014,-6.0163,-6.0214,-6.0236,-6.0254,-6.0392,-6.0296,-6.0292,-6.0324,-6.0314,-6.0338,-6.0338,-6.0319,-6.042,-6.0436,-6.0505,-6.0374,-6.0677,-6.0687,-6.0695,-6.08,-6.082,-6.0837,0,0,0,0,0,-6.0134,-6.0242,-6.0217,-6.0235,-6.0319,-6.0396,-6.0406,-6.0384,-6.033,-6.0381,-6.0382,-6.0337,-6.0489,-6.0431,-6.0448,-6.052,-6.0673,-6.0684,-6.0695,-6.0791,-6.0816,-6.0836,0,0,0,0,0,0,-6.0227,-6.0245,-6.0217,-6.0337,-6.0366,-6.0382,-6.0445,-6.0411,-6.0455,-6.0444,-6.0413,-6.0419,-6.0521,-6.053,-6.0466,-6.0648,-6.0571,-6.0586,-6.0639,-6.0662,-6.068,-6.0676,-6.0379,0,0,0,0,0,-6.0262,-6.0326,-6.0336,-6.0441,-6.0457,-6.0449,-6.0482,-6.0462,-6.049,-6.0502,-6.051,-6.0538,-6.0591,-6.0627,-6.0677,-6.0801,-6.0803,-6.0858,-6.0877,-6.0892,-6.0905,-6.097,-6.0994,-6.0737,-6.0737,-6.0736,0,0,-6.0334,-6.0351,-6.0393,-6.046,-6.048,-6.0544,-6.046,-6.0531,-6.0578,-6.0512,-6.0604,-6.0611,-6.0639,-6.075,-6.0799,-6.076,-6.0977,-6.0907,-6.0919,-6.0923,-6.0984,-6.1008,-6.103,-6.0744,-6.0743,-6.0742,0,0,-6.0498,-6.0519,-6.0607,-6.063,-6.0662,-6.0656,-6.0677,-6.0699,-6.0702,-6.0794,-6.0745,-6.0799,-6.0893,-6.0915,-6.0938,-6.111,-6.1069,-6.1127,-6.1224,-6.1288,-6.1308,-6.1326,-6.1386,-6.1408,-6.114,-6.1141,-6.1141,0,-6.0583,-6.068,-6.0656,-6.0732,-6.0762,-6.0707,-6.0795,-6.0817,-6.0863,-6.0884,-6.0841,-6.0957,-6.0972,-6.1086,-6.1129,-6.115,-6.1172,-6.1124,-6.1307,-6.1325,-6.1341,-6.1398,-6.1421,-6.1147,-6.1146,-6.1146,-6.1145,0,-6.0782,-6.085,-6.0917,-6.0965,-6.1003,-6.1084,-6.1071,-6.1111,-6.1088,-6.1086,-6.118,-6.1196,-6.1248,-6.1274,-6.1251,-6.1384,-6.1359,-6.1313,-6.1234,-6.1373,-6.1425,-6.1447,-6.1157,-6.1154,-6.1152,-6.1151,0,0,-6.1006,-6.1041,-6.1066,-6.1086,-6.1118,-6.1169,-6.1247,-6.1299,-6.1334,-6.1367,-6.1431,-6.1511,-6.1468,-6.1494,-6.1474,-6.153,-6.1663,-6.1475,-6.1476,-6.1509,-6.1809,-6.1844,-6.1869,-6.1637,-6.1641,-6.1644,-6.1806,0,-6.117,-6.1307,-6.1288,-6.1419,-6.148,-6.1428,-6.1496,-6.1522,-6.1522,-6.1572,-6.1571,-6.1628,-6.1567,-6.1583,-6.1636,-6.1636,-6.1723,-6.1624,-6.1693,-6.1696,-6.1687,-6.1897,-6.1934,-6.2086,-6.1827,-6.183,-6.1833,0,-6.1378,-6.1421,-6.1559,-6.1581,-6.1606,-6.1667,-6.1713,-6.1762,-6.1789,-6.1785,-6.1816,-6.1785,-6.186,-6.1782,-6.1885,-6.1818,-6.1845,-6.185,-6.1855,-6.186,-6.1772,-6.1906,-6.2134,-6.2157,-6.1865,-6.1863,-6.186,0,-6.1527,-6.1619,-6.1713,-6.1732,-6.176,-6.1804,-6.1818,-6.1841,-6.1873,-6.1912,-6.1932,-6.1979,-6.2005,-6.2041,-6.2023,-6.1968,-6.2129,-6.2049,-6.2126,-6.2126,-6.2161,-6.2159,-6.2395,-6.2181,-6.218,-6.218,-6.2179,0,-6.171,-6.1796,-6.178,-6.1838,-6.1932,-6.1908,-6.2001,-6.2008,-6.2029,-6.2085,-6.2043,-6.2096,-6.207,-6.2121,-6.2107,-6.2194,-6.2206,-6.2203,-6.2198,-6.2206,-6.2206,-6.2223,-6.2211,-6.2186,-6.2185,-6.2183,-6.2182,0,-6.1892,-6.1885,-6.1984,-6.2002,-6.2009,-6.2077,-6.2092,-6.2145,-6.2142,-6.2214,-6.2229,-6.2223,-6.2281,-6.2267,-6.233,-6.2321,-6.2429,-6.2411,-6.2421,-6.2416,-6.2493,-6.2485,-6.2747,-6.2779,-6.2545,-6.2547,-6.2549,0,-6.2009,-6.2074,-6.21,-6.2136,-6.2153,-6.2211,-6.2244,-6.2222,-6.2258,-6.2294,-6.2342,-6.2397,-6.2439,-6.2533,-6.2534,-6.2581,-6.2563,-6.2652,-6.257,-6.2576,-6.2563,-6.2559,-6.2564,-6.2667,-6.267,-6.2672,-6.2674,0,-6.2217,-6.221,-6.2261,-6.231,-6.2351,-6.2389,-6.2421,-6.2452,-6.2433,-6.2475,-6.2535,-6.2568,-6.2632,-6.2686,-6.273,-6.2741,-6.2704,-6.27,-6.272,-6.2728,-6.2731,-6.2729,-6.2464,-6.2694,-6.2692,-6.269,-6.2689,-6.2689,-6.2369,-6.2424,-6.2451,-6.2508,-6.2531,-6.2563,-6.2613,-6.2617,-6.2667,-6.2719,-6.2703,-6.277,-6.2794,-6.2849,-6.2866,-6.2917,-6.2883,-6.2912,-6.2919,-6.2927,-6.2936,-6.2724,-6.2925,-6.2924,-6.2923,-6.2923,-6.2923,0,-6.2574,-6.2589,-6.2642,-6.269,-6.2735,-6.2698,-6.2732,-6.2771,-6.2832,-6.2859,-6.2902,-6.2969,-6.3021,-6.3026,-6.3074,-6.3114,-6.3098,-6.3127,-6.3123,-6.3126,-6.2964,-6.2941,-6.3139,-6.3139,-6.3139,-6.3139,-6.3139,-6.3139,-6.2685,-6.2777,-6.2773,-6.2874,-6.2888,-6.2955,-6.2978,-6.3006,-6.3027,-6.3105,-6.3149,-6.3152,-6.3169,-6.3218,-6.3264,-6.3263,-6.3282,-6.3318,-6.3311,-6.3159,-6.3138,-6.3117,-6.3095,-6.3322,-6.3323,-6.3469,-6.347,-6.3471]}]]